Hourly Data Report for May 30, 2018

KUGAARUK CLIMATE
NUNAVUT
Current Station Operator: ECCC - MSC

68°32'15.060" N
89°47'47.020" W
15.80 m
2303094
71407
NBB

Download Data

Hourly Data (May 2018)
Hourly Data Report for May 30, 2018
TIME
LST
Temp Definition
°C
Dew Point Definition
°C
Rel Hum Definition
%
Precip. Amount Definition
mm

Wind Dir Definition
10's deg

Wind Spd Definition
km/h
Visibility Definition
km
Stn Press Definition
kPa
Hmdx Definition


Wind Chill Definition


Weather Definition


00:00 -4.3 -5.9 89 0.0 16 18   99.73   -10 LegendNANA
01:00 -4.9 -6.4 89 0.0 15 24   99.71   -12 LegendNANA
02:00 -5.2 -6.8 88 0.2 12 12   99.72   -10 LegendNANA
03:00 -5.0 -6.7 88 0.0 10 14   99.71   -10 LegendNANA
04:00 -5.3 -6.9 89 0.0 7 15   99.70   -11 LegendNANA
05:00 -5.5 -7.1 88 0.0 7 17   99.68   -12 LegendNANA
06:00 -5.3 -7.3 85 0.2 6 15   99.67   -11 LegendNANA
07:00 -4.8 -7.1 84 0.0 6 15   99.66   -10 LegendNANA
08:00 -5.0 -7.7 81 0.0 4 18   99.67   -11 LegendNANA
09:00 -4.9 -7.7 80 0.0 4 24   99.65   -12 LegendNANA
10:00 -4.5 -7.3 81 0.0 5 25   99.68   -12 LegendNANA
11:00 -4.7 -7.6 80 0.2 5 25   99.69   -12 LegendNANA
12:00 -4.4 -7.1 82 0.0 4 22   99.72   -11 LegendNANA
13:00 -4.3 -7.0 81 0.0 3 25   99.73   -11 LegendNANA
14:00 -4.4 -7.1 82 0.0 2 28   99.76   -12 LegendNANA
15:00 -4.3 -6.8 82 0.0 3 27   99.80   -12 LegendNANA
16:00 -4.6 -6.9 84 0.0 1 26   99.82   -12 LegendNANA
17:00 -4.6 -6.4 87 0.2 1 26   99.84   -12 LegendNANA
18:00 -4.9 -6.6 88 0.0 1 28   99.86   -13 LegendNANA
19:00 -5.1 -7.0 86 0.0 36 27   99.89   -13 LegendNANA
20:00 -5.3 -7.2 87 0.2 36 27   99.89   -13 LegendNANA
21:00 -5.4 -7.1 88 0.0 35 31   99.89   -14 LegendNANA
22:00 -4.5 -6.0 89 0.0 36 33   99.91   -13 LegendNANA
23:00 -4.2 -5.8 88 0.0 35 35   99.94   -13 LegendNANA

Notes on Data Quality.

Legend

  • E = Estimated
  • M = Missing
  • NA = Not Available*
  • [empty] = Indicates an unobserved value
Date modified: